704  
ASUS44 KSHV 220110  
RWRSHV  
 
WEATHER ROUNDUP FOR THE FOUR STATE AREA  
NATIONAL WEATHER SERVICE SHREVEPORT LA  
700 PM CST TUE NOV 21 2017  
 
NOTE: "FAIR" INDICATES FEW OR NO CLOUDS BELOW 12000 FEET  
WITH NO SIGNIFICANT WEATHER AND/OR S TO VISIBILITY
.  
 
!LAZ001-LAZ014-TXZ097-220200  
SHREVEPORT...MONROE...TEXARKANA RADIOS  
 
CITY SKY/WX TMP DP RH WIND PRES REMARKS
 
SHREVEPORT LGT RAIN 56 54 93 E3 30.04R  
MONROE CLOUDY 56 50 80 CALM 30.04R  
NATCHITOCHES CLOUDY 53 53 100 E3 30.03S  
TEXARKANA CLOUDY 58 51 78 W3 30.07R  

 
 
!LAZ001-LAZ014-TXZ097-220200  
OTHER LOCATIONS...  
 
CITY SKY/WX TMP DP RH WIND PRES REMARKS
 
DOWNTOWN SHV CLOUDY 57 52 83 CALM 30.05R  
BOSSIER CITY CLOUDY 56 50 82 CALM 30.04R  
RUSTON MOCLDY 52 49 92 CALM 30.08R  
LITTLE ROCK PTCLDY 52 47 83 CALM 30.08R  
EL DORADO MOCLDY 55 52 89 CALM 30.06R  
JACKSON CLOUDY 56 47 71 N3 30.04R  
NEW ORLEANS CLOUDY 65 60 84 E6 29.98S  
HOUSTON CLOUDY 67 63 87 NE12 29.94R  
LUFKIN PTCLDY 59 55 87 NE7 30.01R  
TYLER PTCLDY 58 54 86 NE6 30.04R  
DAL FT WORTH PTCLDY 62 47 57 N15 30.08R  

 
 
!TXZ136-TXZ165-220200  
TYLER...LUFKIN RADIOS  
 
CITY SKY/WX TMP DP RH WIND PRES REMARKS
 
TYLER PTCLDY 58 54 86 NE6 30.04R  
GILMER MOCLDY 54 51 90 CALM 30.06R  
LONGVIEW CLOUDY 58 55 90 E5 30.03R  
LUFKIN PTCLDY 59 55 87 NE7 30.01R  

 
 
!TXZ136-TXZ165-220200  
OTHER LOCATIONS...  
 
CITY SKY/WX TMP DP RH WIND PRES REMARKS
 
NACOGDOCHES CLOUDY 59 55 87 NE3 30.02R  
BEAUMONT MOCLDY 60 57 89 NE10 29.95R  
HOUSTON CLOUDY 67 63 87 NE12 29.94R  
COLLEGE STN CLOUDY 68 58 70 NE9 29.95R  
AUSTIN PTCLDY 66 51 58 N12 29.96R  
DAL FT WORTH PTCLDY 62 47 57 N15 30.08R  
TEXARKANA CLOUDY 58 51 78 W3 30.07R  
SHREVEPORT LGT RAIN 56 54 93 E3 30.04R  
FORT POLK CLOUDY 55 54 94 E8 30.00R  
LAKE CHARLES HVY RAIN 58 57 97 E17 29.97R FOG  

 
 
 
CLICK HERE TO GO TO PREVIOUS BULLETINS.

The Nexlab LA Page
The Nexlab TX Page
The Nexlab AR Page
The Nexlab OK Page Main Text Page